SCP
2 2 2 2 2 2 2 2 2 1 1 1 0 0 1 0 0 0 0 0 0 0 0 0 0 0 0 0 0 0 0 0 0 0 0 0 0 0 0 0 0 0 1
2 2 2 2 3 3 3 2 2 1 1 1 1 1 1 0 0 0 0 0 0 0 0 0 0 0 0 0 0 0 0 0 0 0 0 0 0 0 0 0 0 0 1
2 2 2 3 3 3 3 3 2 2 1 1 1 1 1 0 0 0 0 0 0 0 0 0 0 0 0 0 0 0 0 0 0 0 0 0 0 0 0 0 0 1 1
2 2 3 3 3 3 3 3 2 2 1 1 1 1 1 0 0 0 0 0 0 0 0 0 0 0 0 0 0 0 0 0 0 0 0 0 0 0 0 0 0 1 1
3 3 3 4 4 3 3 3 2 2 2 1 1 1 1 1 1 1 0 0 0 0 0 0 0 0 0 0 0 0 0 0 0 0 0 0 0 0 0 0 1 1 1
3 3 4 4 4 3 3 3 3 2 2 2 1 1 1 1 1 1 1 0 0 0 0 1 0 0 0 0 0 0 0 0 0 0 0 0 0 0 1 1 1 1 1
3 3 3 4 4 3 3 3 3 2 2 2 2 1 1 1 1 1 1 1 0 1 1 1 1 1 0 0 0 0 0 0 0 0 0 0 0 1 1 1 1 1 1
3 3 3 4 4 3 3 3 2 2 2 2 2 2 1 1 1 1 1 1 1 1 1 1 1 1 1 1 0 0 0 0 0 0 0 0 0 1 1 1 1 1 1
3 3 3 3 3 3 3 3 2 2 2 2 2 2 2 2 2 1 1 1 1 1 1 1 1 1 1 1 1 1 0 0 0 0 0 0 0 0 0 1 1 1 1
4 3 3 3 3 3 3 2 2 2 2 1 1 2 2 2 2 1 1 1 1 1 1 1 1 1 1 1 1 1 0 0 0 0 0 0 0 0 0 0 1 1 1
4 4 3 3 2 2 2 2 2 2 2 1 1 1 1 1 1 1 1 1 1 1 1 1 1 1 1 1 1 0 0 0 0 0 0 0 1 1 1 0 1 1 1
4 4 4 3 3 3 3 3 2 2 2 2 1 1 1 1 1 1 1 1 1 1 1 1 1 1 1 1 1 0 0 0 0 0 1 1 1 1 1 1 0 1 1
3 4 4 4 3 3 3 3 3 3 2 2 2 1 1 1 1 1 1 1 1 1 1 1 1 1 1 1 1 0 0 0 0 0 0 1 1 1 1 1 0 1 1
2 2 3 3 3 4 4 4 4 3 3 2 2 2 2 1 1 1 1 1 1 1 1 1 1 1 0 0 0 0 0 0 0 0 0 0 1 1 1 1 1 1 1
1 1 1 2 2 3 4 5 4 4 4 3 3 3 2 2 2 1 1 1 1 1 1 1 1 0 0 0 0 0 0 0 0 0 0 0 0 1 1 1 1 1 1
0 0 1 1 1 2 3 4 4 4 4 3 3 3 3 2 2 2 1 1 1 1 1 1 0 0 0 0 0 0 0 0 0 0 0 0 0 1 1 1 1 1 1
0 0 0 1 1 1 2 2 3 3 3 3 2 2 2 2 2 2 2 1 1 1 1 1 0 0 0 0 0 0 0 0 0 0 0 0 0 0 1 1 1 1 1
1 1 1 1 1 1 1 1 2 3 3 2 2 2 2 2 2 2 2 2 2 1 1 1 1 0 0 0 0 0 0 0 0 0 0 0 0 0 0 0 1 1 1
1 1 1 1 2 1 1 1 1 2 2 2 2 2 2 1 1 1 2 2 1 1 1 1 1 0 0 0 0 0 0 0 0 0 0 0 0 0 0 0 0 1 1
1 1 2 2 2 2 1 1 1 1 2 2 2 2 2 2 1 1 1 1 1 1 1 1 0 0 0 0 0 0 0 0 0 0 0 0 0 0 0 0 0 0 1
1 1 1 2 2 2 1 1 1 1 1 2 2 2 2 2 2 1 1 1 0 0 0 0 0 0 0 0 0 0 0 0 0 0 0 0 0 0 0 0 0 0 0
0 0 1 1 2 2 2 1 0 1 1 1 1 1 2 2 2 2 1 1 0 0 0 0 0 0 0 0 0 0 0 0 0 0 0 0 0 0 0 0 0 0 0
0 0 0 0 1 2 2 1 0 0 1 0 0 0 1 1 2 2 1 1 1 0 0 0 0 0 0 0 0 0 0 0 0 0 0 0 0 0 0 0 0 0 0
0 0 0 0 0 1 1 1 0 0 0 0 0 0 0 1 1 1 1 1 1 1 0 0 0 0 0 0 0 0 0 0 0 0 0 0 0 0 0 0 0 0 0
0 0 0 0 0 1 1 1 0 0 0 0 0 0 0 0 1 1 1 1 1 1 1 0 0 0 0 0 0 0 0 0 0 0 0 0 0 0 0 0 0 0 0
0 0 0 0 0 1 1 1 0 0 0 0 0 0 0 0 0 0 1 1 1 1 1 0 0 0 0 0 0 0 0 0 0 0 0 0 0 0 0 0 0 0 0
Wind_Speed
5 7 7 7 7 7 7 8 8 9 9 10 10 10 11 11 11 11 11 11 11 11 12 12 13 13 13 13 13 13 14 14 14 14 13 13 14 14 13 13 13 10 15
6 8 8 7 7 7 7 8 8 9 9 9 10 10 10 10 11 11 11 11 11 11 12 12 12 13 13 13 12 12 12 12 11 11 12 11 12 13 14 14 13 10 15
7 8 7 7 7 7 7 8 8 8 9 9 9 10 10 10 10 10 10 10 11 11 11 12 12 12 12 12 11 11 10 10 9 8 8 5 8 12 13 13 13 14 13
7 7 7 7 7 7 8 8 8 8 9 9 9 9 9 9 10 10 10 10 10 11 11 11 11 11 11 11 10 9 8 6 6 5 4 5 6 11 12 12 12 13 13
6 7 7 7 7 7 8 8 8 8 9 9 9 9 9 9 9 9 9 10 10 10 10 10 10 10 10 9 8 7 6 5 5 4 4 5 5 9 11 11 11 11 12
6 7 7 7 7 7 7 8 7 7 8 9 9 8 8 8 8 9 9 9 9 10 10 9 9 9 9 8 7 6 5 5 4 3 4 5 5 9 10 10 10 10 11
5 6 6 7 6 7 7 7 7 7 8 8 8 8 8 8 8 8 8 9 9 9 9 9 8 8 8 7 6 5 4 4 3 3 4 4 6 10 10 9 9 9 10
5 6 6 6 6 6 6 7 7 7 7 7 8 7 7 8 7 7 7 8 8 8 8 8 7 7 6 5 4 4 3 3 3 4 4 4 8 9 9 9 8 8 8
5 5 4 4 4 5 6 6 6 7 7 7 7 7 7 7 7 7 7 7 7 6 6 7 6 6 5 4 3 3 3 3 2 2 4 4 7 8 8 8 7 7 6
4 4 4 3 3 3 4 5 6 7 6 6 6 6 6 6 6 7 7 6 6 6 5 5 5 5 4 2 1 2 3 2 1 2 2 4 7 7 7 6 6 5 5
4 3 2 3 3 3 3 4 5 6 5 5 5 6 5 3 4 4 6 5 5 5 4 4 4 3 2 1 1 1 2 0 2 2 2 6 6 6 6 5 5 5 4
2 2 2 2 2 2 2 3 2 3 3 3 3 3 2 2 2 4 5 5 5 4 3 3 3 3 2 1 1 2 1 0 1 1 3 6 5 5 4 4 3 3 3
1 2 2 2 2 2 2 2 1 1 2 2 3 2 2 2 2 3 2 3 3 3 2 1 1 1 1 1 1 1 1 1 1 1 3 5 4 4 3 3 2 2 1
2 2 2 2 2 2 2 1 1 2 2 2 2 2 2 2 2 2 2 2 2 1 1 1 1 1 1 1 1 1 1 1 1 2 2 4 3 3 2 2 2 2 1
1 2 2 2 2 2 2 2 2 2 2 2 2 2 2 2 2 2 2 1 1 1 1 1 1 1 1 1 1 1 1 1 2 2 2 4 3 2 3 3 3 3 2
1 1 1 2 2 2 2 2 2 2 2 2 3 3 3 2 2 2 2 1 1 1 1 0 0 0 1 1 1 1 1 0 1 2 2 2 2 2 2 3 3 3 3
1 2 2 2 2 2 2 2 2 2 2 3 3 3 3 3 2 2 2 1 1 1 1 0 0 0 1 1 1 2 1 1 1 2 3 2 2 2 1 2 2 2 2
2 2 2 2 2 2 2 2 2 2 2 3 2 2 3 3 2 2 2 1 1 1 1 0 0 0 1 1 1 2 1 1 1 1 2 3 2 2 1 1 1 2 2
2 2 3 2 2 2 2 2 2 2 3 3 3 2 2 2 3 2 2 1 1 1 1 1 1 0 0 1 1 1 1 1 1 0 1 2 2 2 2 1 1 1 2
2 2 3 3 2 2 1 2 2 2 3 2 2 2 2 2 2 2 2 2 1 1 1 1 1 1 0 1 1 2 2 2 1 0 0 1 1 2 2 2 1 1 2
3 3 2 2 2 2 1 1 2 2 2 2 2 2 2 2 2 2 1 1 1 1 1 1 1 1 1 1 1 1 2 1 2 1 1 1 1 1 1 1 1 1 1
2 2 2 2 1 1 1 1 1 2 2 2 2 2 2 2 2 2 2 1 1 1 1 1 1 0 1 1 1 0 1 2 2 1 1 1 1 1 0 0 1 1 1
2 1 1 2 1 2 2 2 2 2 2 2 1 1 2 2 2 2 2 1 1 1 0 1 0 0 0 1 1 1 1 1 2 1 1 1 1 1 1 1 1 1 1
2 1 2 2 2 2 2 2 2 2 2 1 1 1 1 2 2 2 1 1 1 1 0 1 1 0 1 1 1 1 1 1 1 2 2 1 1 1 1 1 1 2 1
2 2 2 2 2 1 1 1 1 1 1 1 1 1 1 1 1 1 1 1 1 1 1 1 1 0 0 1 0 1 1 1 0 1 2 2 2 1 1 1 1 1 1
3 2 2 2 2 1 1 1 1 2 1 1 1 1 0 1 1 1 0 1 1 1 1 1 1 1 1 1 0 0 0 0 1 1 2 2 2 2 2 1 1 1 1
Wind_Direction
104 114 115 106 103 104 107 109 111 111 110 107 103 100 97 96 95 93 91 89 89 90 89 89 87 86 85 84 83 82 82 81 80 80 79 81 82 81 79 77 78 75 76
114 121 118 111 108 108 111 112 111 113 113 110 107 103 101 100 99 96 92 91 90 88 88 87 87 88 88 87 85 84 86 87 86 84 81 78 80 80 77 75 79 81 81
111 119 117 110 109 110 113 115 112 117 116 113 109 105 105 104 102 98 95 93 91 89 87 86 88 88 88 88 86 85 87 87 88 87 85 86 83 82 82 80 83 83 83
111 117 113 111 108 112 117 119 117 118 119 117 113 109 108 108 105 103 99 96 94 92 90 89 89 89 87 86 86 85 84 81 75 73 77 88 91 89 86 84 84 83 82
103 108 111 108 109 113 119 120 122 120 122 120 116 114 112 110 109 107 105 101 98 95 93 92 91 91 89 86 87 84 78 70 54 66 75 78 82 94 90 85 84 85 84
99 105 113 108 112 115 119 121 121 120 125 122 118 116 114 112 109 107 105 103 100 98 97 95 94 93 91 88 83 75 61 48 52 66 78 80 84 93 93 89 88 88 87
97 105 121 114 113 116 122 125 125 123 128 126 122 120 116 112 109 109 107 106 104 102 101 99 98 96 94 90 80 63 48 43 61 62 73 83 93 97 94 94 94 92 89
96 111 123 119 115 118 123 127 125 125 128 129 124 123 120 114 111 113 115 112 109 106 104 104 103 101 96 92 78 46 26 45 71 80 81 86 104 101 95 94 94 94 92
92 104 116 125 123 125 126 125 126 122 124 125 123 121 116 112 111 112 111 113 112 110 109 108 108 105 103 94 73 31 12 23 41 80 90 86 101 103 101 95 93 98 99
71 88 106 119 124 122 124 123 127 123 122 126 125 122 120 118 115 110 107 108 110 114 116 114 113 112 109 104 67 6 348 2 76 69 84 100 105 107 104 99 93 96 105
53 66 92 108 108 118 129 128 130 132 127 128 126 123 126 129 132 127 118 112 112 113 120 127 129 128 121 153 253 286 318 356 87 84 91 112 114 113 108 103 98 92 100
46 45 66 89 95 98 118 123 139 140 136 135 132 136 137 122 119 118 121 117 112 109 114 131 147 154 164 195 236 256 254 106 93 100 105 120 123 123 121 115 112 102 99
68 44 42 59 84 87 90 119 122 121 129 128 120 128 118 104 102 102 109 111 114 109 103 119 147 202 198 209 223 227 222 137 107 100 112 122 127 137 143 147 142 133 118
55 53 37 39 66 80 89 93 100 113 122 119 116 123 116 112 111 114 117 131 134 132 136 173 217 242 233 233 239 231 215 155 129 114 122 125 137 157 171 179 179 191 185
44 50 47 47 59 67 101 100 87 80 98 108 96 81 84 101 117 120 125 125 128 118 150 217 229 241 250 271 269 264 213 192 147 130 125 131 134 171 198 208 203 206 219
71 52 45 63 67 69 83 93 94 84 83 81 87 76 79 83 92 106 105 112 108 118 135 215 248 260 264 258 277 284 285 251 158 130 138 141 140 172 217 219 216 215 212
96 73 43 74 78 86 94 100 99 89 87 85 82 75 75 79 88 90 90 83 72 77 77 354 359 356 350 339 314 314 311 285 186 148 154 158 164 180 205 214 228 221 192
101 96 78 68 70 72 93 104 99 96 102 95 84 72 63 65 74 90 87 67 48 62 60 9 56 20 351 320 303 301 300 312 240 161 157 155 154 160 167 207 239 213 197
103 99 93 79 79 75 86 120 115 109 104 98 93 85 82 73 74 83 86 57 44 57 50 16 9 10 283 309 291 282 269 260 250 186 143 136 140 141 148 192 219 216 225
94 92 88 85 72 68 80 106 110 103 108 106 106 110 102 93 87 84 86 69 39 43 30 32 8 331 218 252 278 273 259 234 196 174 177 134 119 128 140 160 180 224 234
56 68 81 80 71 68 65 99 127 128 127 120 116 119 119 111 105 102 92 87 51 37 8 346 349 328 345 7 355 307 294 237 197 196 166 125 117 118 125 138 166 191 228
75 61 65 80 80 72 63 77 128 134 129 130 118 110 119 119 118 120 117 120 93 14 6 348 359 358 321 64 110 32 314 306 287 220 160 155 159 109 101 207 209 205 210
74 56 61 55 72 71 65 64 77 78 85 93 107 119 130 140 141 136 145 152 142 118 287 297 305 105 246 268 135 131 161 249 308 281 205 179 172 180 207 219 238 246 230
74 59 64 60 60 78 93 98 111 127 142 142 149 149 152 144 143 134 132 156 153 156 202 267 304 289 156 232 295 283 214 181 154 307 306 257 223 211 213 246 246 235 225
90 69 62 69 57 66 103 105 111 89 101 97 104 116 136 141 136 130 146 182 175 179 200 242 283 281 187 160 228 291 311 318 177 186 275 305 310 266 242 256 254 233 212
85 72 57 60 55 54 101 121 119 107 74 79 98 139 167 129 115 103 234 236 212 202 212 239 256 240 248 232 222 221 246 261 271 229 252 283 287 283 266 235 225 231 239